Weather in Akköl Gölü

Kazakhstan     43°24′07″N   70°41′20″E
temp.,
°C
wind,
m/s
gust,
m/s
humid.,
%
clouds,
%
prec.,
mm/h
press.,
hPa
HPBL,
m
26 february, fri
fri2623:00−9w711340 0.0 1041959
02:00−10w59350 0.0 1040749
05:00−11wsw25380 0.0 1040380
08:00−10sw12390 0.0 1039207
11:00−7s23300 0.0 1037861
14:00−4sw232380 0.0 10351309
17:00−4s122584 0.0 10341176
20:00−5e2333100 0.0 1033229
27 february, sat
sat2723:00−5ese3529100 0.0 1032357
02:00−4e2431100 0.0 1030263
05:00−4s1138100 0.0 103047
08:00−4wsw1233100 0.0 1030152
11:00−1sw3525100 0.0 1030729
14:00+3wsw91331100 0.0 10281903
17:00+2wsw5104375 0.0 10291176
20:00−1sse345093 0.0 103136
28 february, sun
sun2823:00−2sse346291 0.0 103075
02:00−2s345941 0.0 102959
05:00−2s335541 0.0 102834
08:00−1sse344814 0.0 1028104
11:00+5sse23308 0.0 1025431
14:00+8se34260 0.0 1023951
17:00+7e46370 0.0 1023263
20:00+2e35490 0.0 102490
1 march, mon
mon123:00+1ese46550 0.0 102393
02:000ese34579 0.0 102246
05:000se235452 0.0 102122
08:00+3se22453 0.0 102222
11:00+9ssw122645 0.0 1020259
14:00+12wsw232245 0.0 1019745
17:00+11sw113922 0.0 101924
20:00+6s23400 0.0 102122
2 march, tue
tue223:00+5s34430 0.0 102122
02:00+5s34420 0.0 101922
05:00+4sw23370 0.0 101922
08:00+6wsw36440 0.0 1020100
11:00+13w1014320 0.0 10211124
14:00+14w911310 0.0 10201500
17:00+11wnw7104127 0.0 1021862
20:00+7nne2352100 0.0 102257